Location: Stillwell
(40.4602°N, 82.0928°W)
Time: 03:10:38
(UTC-04:00)

Timation 2 Rocket - Pass Details

Date: 25 May 2018
Orbit: 904 x 1078 km, 70.0° (Epoch: 14 August)

Event Time Altitude Azimuth Distance (km) Brightness Sun altitude
Rises 21:54:48 0° 210° (SSW) 3,515 6.8 -11.4°
Reaches altitude 10° 21:57:17 10° 212° (SSW) 2,576 6.1 -11.7°
Maximum altitude 22:03:11 71° 296° (WNW) 964 4.2 -12.6°
Drops below altitude 10° 22:09:15 10° 21° (NNE) 2,636 6.6 -13.4°
Sets 22:11:49 0° 24° (NNE) 3,602 7.3 -13.8°
